Location: Newark
(20.1200°S, 168.9600°E)
Time: 01:57:00
(UTC+00:00)

AO-73 - Visible Passes

Search period start: 22 January 2020 00:00
Search period end: 01 February 2020 00:00
Orbit: 581 x 664 km, 97.6° (Epoch: 21 January)

Date Brightness Start Highest point End Pass type
(mag) Time Alt. Az. Time Alt. Az. Time Alt. Az.
23 Jan ? 07:47:18 10° SW 07:49:46 15° WSW 07:52:12 10° WNW visible
25 Jan ? 17:30:48 10° ENE 17:33:42 17° ESE 17:36:37 10° SSE visible
26 Jan ? 17:47:49 10° NE 17:51:43 28° ESE 17:55:37 10° SSE visible
30 Jan ? 17:25:46 10° ENE 17:28:17 15° ESE 17:30:47 10° SE visible
31 Jan ? 17:42:36 10° NE 17:46:17 24° ESE 17:49:59 10° SSE visible
